Content
SEND FEEDBACK

Daily
Averages
Monthly
Summary
United States of America

LA VERNE, CALIFORNIA


Home > North America > United States > California
Elevation: 960 feet     Latitude: 34 06N     Longitude: 117 48W

WEATHER
 
SELECT A DAY
Number of Records: 183,016;   Date Range: 1/1/95 - 9/19/14
 
SHARE

PRINT THIS DATA

[ ← Previous Day ]
WEATHER ALMANAC - JULY 20, 2014
[ Next Day → ]
[ °C ]   °F
Weather ElementAverageHighLow
Temperature71.9 °F86 °F (2:53 pm)62.6 °F (4:18 am)
Dewpoint60.8 °F62.1 °F (11:53 am)59 °F (10:53 pm)
Humidity70.1 %94 % (4:18 am)44 % (2:53 pm)
Barometer29.97 in30.01 in (7:53 am)29.91 in (5:53 pm)
Wind Speed6.5 mph16.1 mph (6:53 pm)
Wind Gust19.6 mph (2:53 pm)
Weather ElementAverage
Visibility7.9 mi
Wind DirectionSSE (168.8 °)

Weather ElementTotal
Precipitation---
Cooling Degree Days9.3 (Base 65)
Growing Degree Days24.3 (Base 50)
Averaged from 24 records on July 20, 2014
WEATHER CONDITIONS BREAKOUT
WIND DIRECTION BREAKOUT
WEATHER BY HOUR - JULY 20, 2014
[ °C ]   °F
Local TimeTemperatureDewpointHumidityBarometerVisibilityWind DirectionWind SpeedGust SpeedPrecipitationEventsConditions
1:53 AM64.0 °F60.1 °F87 %29.97 in7.0 miCalmClear
2:53 AM63.0 °F60.1 °F90 %29.96 in6.0 miCalmClear
3:53 AM63.0 °F60.1 °F90 %29.95 in6.0 miCalmClear
4:18 AM62.6 °F60.8 °F94 %29.97 in6.0 miCalmMostly Cloudy
4:53 AM64.0 °F61.0 °F90 %29.97 in5.0 miCalmMostly Cloudy
5:53 AM64.9 °F61.0 °F87 %29.98 in6.0 miCalmOvercast
6:53 AM66.0 °F61.0 °F84 %29.99 in6.0 miCalmHaze
7:53 AM68.0 °F61.0 °F78 %30.01 in6.0 miSouth (190°)3.5 mphHaze
8:53 AM70.0 °F61.0 °F73 %30.01 in6.0 miWest (270°)4.6 mphHaze
9:53 AM71.1 °F61.0 °F70 %30.01 in6.0 miSSW (210°)3.5 mphHaze
10:53 AM75.0 °F61.0 °F62 %30.01 in7.0 miCalmMostly Cloudy
11:53 AM77.0 °F62.1 °F60 %30.01 in7.0 miWest (260°)5.8 mphScattered Clouds
12:53 PM81.0 °F62.1 °F52 %29.99 in10.0 miWNW (290°)8.1 mphScattered Clouds
1:53 PM84.0 °F62.1 °F47 %29.96 in10.0 miWest (270°)6.9 mphPartly Cloudy
2:53 PM86.0 °F62.1 °F44 %29.95 in10.0 miWSW (250°)13.8 mph19.6 mphPartly Cloudy
3:53 PM84.0 °F61.0 °F46 %29.94 in10.0 miWSW (240°)15.0 mphPartly Cloudy
4:53 PM82.9 °F61.0 °F47 %29.92 in10.0 miWest (260°)13.8 mphPartly Cloudy
5:53 PM82.0 °F61.0 °F49 %29.91 in10.0 miWSW (250°)12.7 mphPartly Cloudy
6:53 PM78.1 °F61.0 °F56 %29.92 in10.0 miSW (230°)16.1 mphPartly Cloudy
7:53 PM72.0 °F61.0 °F68 %29.94 in10.0 miWSW (250°)13.8 mphPartly Cloudy
8:53 PM70.0 °F60.1 °F71 %29.97 in9.0 miWest (260°)13.8 mphClear
9:53 PM66.9 °F60.1 °F79 %29.99 in9.0 miWest (280°)11.5 mphClear
10:53 PM66.0 °F59.0 °F78 %30.01 in9.0 miWest (270°)8.1 mphClear
11:53 PM64.9 °F59.0 °F81 %30.01 in9.0 miWest (270°)4.6 mphClear
Hourly data recorded from KCNO, located miles away from La Verne, California







STORIES FROM OUR PARTNERS